{"data":{"norad_id":62071,"intl_designator":"2024-217Q","name":"STARLINK-32553","alt_names":[],"object_type":"PAYLOAD","status":"ACTIVE","operator":null,"country":"US","launch_date":"2024-11-24","launch_site_code":"AFWTR","launch_vehicle":null,"mission":null,"orbit_class":"UNKNOWN","rcs_meters":null,"size_class":null,"mass_kg":null,"dimensions":null,"purposes":["comms"],"wikipedia_slug":null,"has_3d_model":false,"image_url":null,"decayed_at":null,"tle_current":{"epoch":"2026-09-21T18:43:57.681408Z","epoch_age_seconds":70503,"freshness":"FRESH","line1":"1 62071U 24217Q   26264.78052872  .00022447  00000+0  67313-3 0  9992","line2":"2 62071  53.1604 359.5386 0001179  82.6929 277.4207 15.34416909103544","mean_motion":15.34416909,"eccentricity":0.0001179,"inclination_deg":53.1604,"raan_deg":359.5386,"arg_perigee_deg":82.6929,"mean_anomaly_deg":277.4207,"bstar":0.00067313,"rev_number":10354,"period_min":93.84672389582,"perigee_km":461.84645441815,"apogee_km":463.45951269628,"semimajor_km":6840.7899835572,"source":"CELESTRAK","updated_at":"2026-09-22T09:00:49.494679Z"}}}